Terminal Aerodrome Forecast
Issued by NWS

Home | Current Version | Previous Version | Text Only | Print | Product List | Glossary On
Versions: 1 2 3 4 5 6 7 8 9 10 11 12 13 14 15 16 17 18
081
FTUS41 KBTV 092035 AAA
TAFMPV
TAF AMD
KMPV 092035Z 0921/1018 00000KT P6SM OVC030
     FM101400 00000KT P6SM VCSH OVC020
     FM101700 00000KT 2SM -SN BR OVC020=

USA.gov is the U.S. government's official web portal to all federal, state and local government web resources and services.